Year,Month,Day,Hour,Minute,Value (Times are PST for temperature in C)
2017,10,27,00,00,5.90
2017,10,27,00,01,5.90
2017,10,27,00,02,5.90
2017,10,27,00,03,5.90
2017,10,27,00,04,5.90
2017,10,27,00,05,5.90
2017,10,27,00,06,5.90
2017,10,27,00,07,5.90
2017,10,27,00,08,5.90
2017,10,27,00,09,5.90
2017,10,27,00,10,5.90
2017,10,27,00,11,5.90
2017,10,27,00,12,5.90
2017,10,27,00,13,5.90
2017,10,27,00,14,5.80
2017,10,27,00,15,5.80
2017,10,27,00,16,5.80
2017,10,27,00,17,5.80
2017,10,27,00,18,5.80
2017,10,27,00,19,5.80
2017,10,27,00,20,5.80
2017,10,27,00,21,5.70
2017,10,27,00,22,5.70
2017,10,27,00,23,5.70
2017,10,27,00,24,5.70
2017,10,27,00,25,5.70
2017,10,27,00,26,5.70
2017,10,27,00,27,5.70
2017,10,27,00,28,5.70
2017,10,27,00,29,5.60
2017,10,27,00,30,5.60
2017,10,27,00,31,5.60
2017,10,27,00,32,5.60
2017,10,27,00,33,5.60
2017,10,27,00,34,5.60
2017,10,27,00,35,5.60
2017,10,27,00,36,5.60
2017,10,27,00,37,5.60
2017,10,27,00,38,5.60
2017,10,27,00,39,5.60
2017,10,27,00,40,5.60
2017,10,27,00,41,5.60
2017,10,27,00,42,5.60
2017,10,27,00,43,5.60
2017,10,27,00,44,5.60
2017,10,27,00,45,5.60
2017,10,27,00,46,5.60
2017,10,27,00,47,5.60
2017,10,27,00,48,5.60
2017,10,27,00,49,5.60
2017,10,27,00,50,5.60
2017,10,27,00,51,5.60
2017,10,27,00,52,5.50
2017,10,27,00,53,5.50
2017,10,27,00,54,5.50
2017,10,27,00,55,5.50
2017,10,27,00,56,5.50
2017,10,27,00,57,5.40
2017,10,27,00,58,5.40
2017,10,27,00,59,5.40
2017,10,27,01,00,5.40
2017,10,27,01,01,5.40
2017,10,27,01,02,5.40
2017,10,27,01,03,5.40
2017,10,27,01,04,5.40
2017,10,27,01,05,5.40
2017,10,27,01,06,5.40
2017,10,27,01,07,5.40
2017,10,27,01,08,5.40
2017,10,27,01,09,5.40
2017,10,27,01,10,5.40
2017,10,27,01,11,5.40
2017,10,27,01,12,5.30
2017,10,27,01,13,5.30
2017,10,27,01,14,5.30
2017,10,27,01,15,5.30
2017,10,27,01,16,5.30
2017,10,27,01,17,5.30
2017,10,27,01,18,5.30
2017,10,27,01,19,5.30
2017,10,27,01,20,5.30
2017,10,27,01,21,5.30
2017,10,27,01,22,5.30
2017,10,27,01,23,5.30
2017,10,27,01,24,5.30
2017,10,27,01,25,5.30
2017,10,27,01,26,5.30
2017,10,27,01,27,5.30
2017,10,27,01,28,5.30
2017,10,27,01,29,5.30
2017,10,27,01,30,5.30
2017,10,27,01,31,5.30
2017,10,27,01,32,5.30
2017,10,27,01,33,5.30
2017,10,27,01,34,5.30
2017,10,27,01,35,5.30
2017,10,27,01,36,5.30
2017,10,27,01,37,5.30
2017,10,27,01,38,5.30
2017,10,27,01,39,5.30
2017,10,27,01,40,5.20
2017,10,27,01,41,5.20
2017,10,27,01,42,5.20
2017,10,27,01,43,5.20
2017,10,27,01,44,5.20
2017,10,27,01,45,5.20
2017,10,27,01,46,5.20
2017,10,27,01,47,5.10
2017,10,27,01,48,5.10
2017,10,27,01,49,5.10
2017,10,27,01,50,5.10
2017,10,27,01,51,5.10
2017,10,27,01,52,5.10
2017,10,27,01,53,5.10
2017,10,27,01,54,5.10
2017,10,27,01,55,5.10
2017,10,27,01,56,5.00
2017,10,27,01,57,5.00
2017,10,27,01,58,5.00
2017,10,27,01,59,5.00
2017,10,27,02,00,5.00
2017,10,27,02,01,5.00
2017,10,27,02,02,5.00
2017,10,27,02,03,5.00
2017,10,27,02,04,4.90
2017,10,27,02,05,5.00
2017,10,27,02,06,5.00
2017,10,27,02,07,4.90
2017,10,27,02,08,5.00
2017,10,27,02,09,4.90
2017,10,27,02,10,4.90
2017,10,27,02,11,4.90
2017,10,27,02,12,4.90
2017,10,27,02,13,4.90
2017,10,27,02,14,4.90
2017,10,27,02,15,4.90
2017,10,27,02,16,4.90
2017,10,27,02,17,4.90
2017,10,27,02,18,4.90
2017,10,27,02,19,4.90
2017,10,27,02,20,4.90
2017,10,27,02,21,4.90
2017,10,27,02,22,4.90
2017,10,27,02,23,4.90
2017,10,27,02,24,4.90
2017,10,27,02,25,4.90
2017,10,27,02,26,4.90
2017,10,27,02,27,4.90
2017,10,27,02,28,4.90
2017,10,27,02,29,4.90
2017,10,27,02,30,4.90
2017,10,27,02,31,4.90
2017,10,27,02,32,4.80
2017,10,27,02,33,4.80
2017,10,27,02,34,4.80
2017,10,27,02,35,4.80
2017,10,27,02,36,4.80
2017,10,27,02,37,4.80
2017,10,27,02,38,4.80
2017,10,27,02,39,4.80
2017,10,27,02,40,4.80
2017,10,27,02,41,4.70
2017,10,27,02,42,4.70
2017,10,27,02,43,4.70
2017,10,27,02,44,4.70
2017,10,27,02,45,4.70
2017,10,27,02,46,4.70
2017,10,27,02,47,4.70
2017,10,27,02,48,4.70
2017,10,27,02,49,4.70
2017,10,27,02,50,4.70
2017,10,27,02,51,4.70
2017,10,27,02,52,4.70
2017,10,27,02,53,4.70
2017,10,27,02,54,4.70
2017,10,27,02,55,4.70
2017,10,27,02,56,4.70
2017,10,27,02,57,4.70
2017,10,27,02,58,4.70
2017,10,27,02,59,4.70
2017,10,27,03,00,4.70
2017,10,27,03,01,4.70
2017,10,27,03,02,4.70
2017,10,27,03,03,4.70
2017,10,27,03,04,4.70
2017,10,27,03,05,4.70
2017,10,27,03,06,4.70
2017,10,27,03,07,4.70
2017,10,27,03,08,4.70
2017,10,27,03,09,4.70
2017,10,27,03,10,4.70
2017,10,27,03,11,4.70
2017,10,27,03,12,4.70
2017,10,27,03,13,4.70
2017,10,27,03,14,4.70
2017,10,27,03,15,4.70
2017,10,27,03,16,4.70
2017,10,27,03,17,4.70
2017,10,27,03,18,4.70
2017,10,27,03,19,4.70
2017,10,27,03,20,4.70
2017,10,27,03,21,4.70
2017,10,27,03,22,4.70
2017,10,27,03,23,4.70
2017,10,27,03,24,4.70
2017,10,27,03,25,4.70
2017,10,27,03,26,4.70
2017,10,27,03,27,4.70
2017,10,27,03,28,4.60
2017,10,27,03,29,4.60
2017,10,27,03,30,4.60
2017,10,27,03,31,4.60
2017,10,27,03,32,4.60
2017,10,27,03,33,4.60
2017,10,27,03,34,4.60
2017,10,27,03,35,4.60
2017,10,27,03,36,4.60
2017,10,27,03,37,4.60
2017,10,27,03,38,4.60
2017,10,27,03,39,4.60
2017,10,27,03,40,4.60
2017,10,27,03,41,4.60
2017,10,27,03,42,4.60
2017,10,27,03,43,4.60
2017,10,27,03,44,4.60
2017,10,27,03,45,4.60
2017,10,27,03,46,4.60
2017,10,27,03,47,4.60
2017,10,27,03,48,4.60
2017,10,27,03,49,4.60
2017,10,27,03,50,4.60
2017,10,27,03,51,4.60
2017,10,27,03,52,4.60
2017,10,27,03,53,4.60
2017,10,27,03,54,4.50
2017,10,27,03,55,4.50
2017,10,27,03,56,4.50
2017,10,27,03,57,4.50
2017,10,27,03,58,4.50
2017,10,27,03,59,4.50
2017,10,27,04,00,4.50
2017,10,27,04,01,4.50
2017,10,27,04,02,4.40
2017,10,27,04,03,4.40
2017,10,27,04,04,4.40
2017,10,27,04,05,4.40
2017,10,27,04,06,4.40
2017,10,27,04,07,4.40
2017,10,27,04,08,4.40
2017,10,27,04,09,4.40
2017,10,27,04,10,4.40
2017,10,27,04,11,4.40
2017,10,27,04,12,4.30
2017,10,27,04,13,4.30
2017,10,27,04,14,4.40
2017,10,27,04,15,4.40
2017,10,27,04,16,4.40
2017,10,27,04,17,4.40
2017,10,27,04,18,4.40
2017,10,27,04,19,4.50
2017,10,27,04,20,4.50
2017,10,27,04,21,4.50
2017,10,27,04,22,4.50
2017,10,27,04,23,4.60
2017,10,27,04,24,4.60
2017,10,27,04,25,4.60
2017,10,27,04,26,4.60
2017,10,27,04,27,4.60
2017,10,27,04,28,4.60
2017,10,27,04,29,4.60
2017,10,27,04,30,4.60
2017,10,27,04,31,4.60
2017,10,27,04,32,4.60
2017,10,27,04,33,4.60
2017,10,27,04,34,4.60
2017,10,27,04,35,4.60
2017,10,27,04,36,4.60
2017,10,27,04,37,4.60
2017,10,27,04,38,4.60
2017,10,27,04,39,4.50
2017,10,27,04,40,4.50
2017,10,27,04,41,4.50
2017,10,27,04,42,4.50
2017,10,27,04,43,4.50
2017,10,27,04,44,4.40
2017,10,27,04,45,4.40
2017,10,27,04,46,4.40
2017,10,27,04,47,4.40
2017,10,27,04,48,4.40
2017,10,27,04,49,4.40
2017,10,27,04,50,4.40
2017,10,27,04,51,4.40
2017,10,27,04,52,4.40
2017,10,27,04,53,4.40
2017,10,27,04,54,4.40
2017,10,27,04,55,4.40
2017,10,27,04,56,4.40
2017,10,27,04,57,4.40
2017,10,27,04,58,4.40
2017,10,27,04,59,4.40
2017,10,27,05,00,4.40
2017,10,27,05,01,4.40
2017,10,27,05,02,4.40
2017,10,27,05,03,4.40
2017,10,27,05,04,4.40
2017,10,27,05,05,4.40
2017,10,27,05,06,4.30
2017,10,27,05,07,4.30
2017,10,27,05,08,4.30
2017,10,27,05,09,4.30
2017,10,27,05,10,4.30
2017,10,27,05,11,4.30
2017,10,27,05,12,4.30
2017,10,27,05,13,4.30
2017,10,27,05,14,4.30
2017,10,27,05,15,4.30
2017,10,27,05,16,4.30
2017,10,27,05,17,4.20
2017,10,27,05,18,4.20
2017,10,27,05,19,4.20
2017,10,27,05,20,4.20
2017,10,27,05,21,4.20
2017,10,27,05,22,4.20
2017,10,27,05,23,4.20
2017,10,27,05,24,4.20
2017,10,27,05,25,4.20
2017,10,27,05,26,4.20
2017,10,27,05,27,4.20
2017,10,27,05,28,4.20
2017,10,27,05,29,4.30
2017,10,27,05,30,4.30
2017,10,27,05,31,4.30
2017,10,27,05,32,4.30
2017,10,27,05,33,4.30
2017,10,27,05,34,4.30
2017,10,27,05,35,4.30
2017,10,27,05,36,4.30
2017,10,27,05,37,4.30
2017,10,27,05,38,4.30
2017,10,27,05,39,4.30
2017,10,27,05,40,4.30
2017,10,27,05,41,4.30
2017,10,27,05,42,4.30
2017,10,27,05,43,4.30
2017,10,27,05,44,4.30
2017,10,27,05,45,4.30
2017,10,27,05,46,4.30
2017,10,27,05,47,4.30
2017,10,27,05,48,4.30
2017,10,27,05,49,4.30
2017,10,27,05,50,4.30
2017,10,27,05,51,4.30
2017,10,27,05,52,4.30
2017,10,27,05,53,4.30
2017,10,27,05,54,4.30
2017,10,27,05,55,4.30
2017,10,27,05,56,4.30
2017,10,27,05,57,4.30
2017,10,27,05,58,4.30
2017,10,27,05,59,4.30
2017,10,27,06,00,4.30
2017,10,27,06,01,4.30
2017,10,27,06,02,4.30
2017,10,27,06,03,4.30
2017,10,27,06,04,4.30
2017,10,27,06,05,4.30
2017,10,27,06,06,4.30
2017,10,27,06,07,4.30
2017,10,27,06,08,4.20
2017,10,27,06,09,4.20
2017,10,27,06,10,4.20
2017,10,27,06,11,4.20
2017,10,27,06,12,4.20
2017,10,27,06,13,4.20
2017,10,27,06,14,4.20
2017,10,27,06,15,4.20
2017,10,27,06,16,4.20
2017,10,27,06,17,4.10
2017,10,27,06,18,4.10
2017,10,27,06,19,4.10
2017,10,27,06,20,4.10
2017,10,27,06,21,4.10
2017,10,27,06,22,4.10
2017,10,27,06,23,4.10
2017,10,27,06,24,4.10
2017,10,27,06,25,4.10
2017,10,27,06,26,4.10
2017,10,27,06,27,4.10
2017,10,27,06,28,4.10
2017,10,27,06,29,4.10
2017,10,27,06,30,4.10
2017,10,27,06,31,4.10
2017,10,27,06,32,4.00
2017,10,27,06,33,4.00
2017,10,27,06,34,4.00
2017,10,27,06,35,4.00
2017,10,27,06,36,4.00
2017,10,27,06,37,4.00
2017,10,27,06,38,3.90
2017,10,27,06,39,3.90
2017,10,27,06,40,3.90
2017,10,27,06,41,3.90
2017,10,27,06,42,3.90
2017,10,27,06,43,3.90
2017,10,27,06,44,3.90
2017,10,27,06,45,3.90
2017,10,27,06,46,3.90
2017,10,27,06,47,3.90
2017,10,27,06,48,3.90
2017,10,27,06,49,3.90
2017,10,27,06,50,3.90
2017,10,27,06,51,3.90
2017,10,27,06,52,3.90
2017,10,27,06,53,3.90
2017,10,27,06,54,3.90
2017,10,27,06,55,3.90
2017,10,27,06,56,3.90
2017,10,27,06,57,3.90
2017,10,27,06,58,3.90
2017,10,27,06,59,3.90
2017,10,27,07,00,3.90
2017,10,27,07,01,3.90
2017,10,27,07,02,3.90
2017,10,27,07,03,3.90
2017,10,27,07,04,3.90
2017,10,27,07,05,3.90
2017,10,27,07,06,4.00
2017,10,27,07,07,4.00
2017,10,27,07,08,4.00
2017,10,27,07,09,4.00
2017,10,27,07,10,4.00
2017,10,27,07,11,3.90
2017,10,27,07,12,3.90
2017,10,27,07,13,3.90
2017,10,27,07,14,3.90
2017,10,27,07,15,3.90
2017,10,27,07,16,3.90
2017,10,27,07,17,3.90
2017,10,27,07,18,3.90
2017,10,27,07,19,3.90
2017,10,27,07,20,3.90
2017,10,27,07,21,3.90
2017,10,27,07,22,3.90
2017,10,27,07,23,3.90
2017,10,27,07,24,3.90
2017,10,27,07,25,3.90
2017,10,27,07,26,3.90
2017,10,27,07,27,3.90
2017,10,27,07,28,3.90
2017,10,27,07,29,3.90
2017,10,27,07,30,3.90
2017,10,27,07,31,3.90
2017,10,27,07,32,3.90
2017,10,27,07,33,3.90
2017,10,27,07,34,3.90
2017,10,27,07,35,3.90
2017,10,27,07,36,3.90
2017,10,27,07,37,3.90
2017,10,27,07,38,3.90
2017,10,27,07,39,3.90
2017,10,27,07,40,3.90
2017,10,27,07,41,3.90
2017,10,27,07,42,3.90
2017,10,27,07,43,3.90
2017,10,27,07,44,3.90
2017,10,27,07,45,3.90
2017,10,27,07,46,3.90
2017,10,27,07,47,3.90
2017,10,27,07,48,3.90
2017,10,27,07,49,3.90
2017,10,27,07,50,3.90
2017,10,27,07,51,3.90
2017,10,27,07,52,3.80
2017,10,27,07,53,3.80
2017,10,27,07,54,3.80
2017,10,27,07,55,3.80
2017,10,27,07,56,3.90
2017,10,27,07,57,3.90
2017,10,27,07,58,3.90
2017,10,27,07,59,3.90
2017,10,27,08,00,3.90
2017,10,27,08,01,3.90
2017,10,27,08,02,3.90
2017,10,27,08,03,3.90
2017,10,27,08,04,3.90
2017,10,27,08,05,3.90
2017,10,27,08,06,3.90
2017,10,27,08,07,3.90
2017,10,27,08,08,3.90
2017,10,27,08,09,3.90
2017,10,27,08,10,3.90
2017,10,27,08,11,3.90
2017,10,27,08,12,4.00
2017,10,27,08,13,4.00
2017,10,27,08,14,4.00
2017,10,27,08,15,4.00
2017,10,27,08,16,4.10
2017,10,27,08,17,4.10
2017,10,27,08,18,4.10
2017,10,27,08,19,4.10
2017,10,27,08,20,4.10
2017,10,27,08,21,4.10
2017,10,27,08,22,4.10
2017,10,27,08,23,4.10
2017,10,27,08,24,4.10
2017,10,27,08,25,4.10
2017,10,27,08,26,4.10
2017,10,27,08,27,4.10
2017,10,27,08,28,4.20
2017,10,27,08,29,4.20
2017,10,27,08,30,4.20
2017,10,27,08,31,4.20
2017,10,27,08,32,4.30
2017,10,27,08,33,4.30
2017,10,27,08,34,4.30
2017,10,27,08,35,4.30
2017,10,27,08,36,4.30
2017,10,27,08,37,4.40
2017,10,27,08,38,4.40
2017,10,27,08,39,4.40
2017,10,27,08,40,4.40
2017,10,27,08,41,4.40
2017,10,27,08,42,4.40
2017,10,27,08,43,4.40
2017,10,27,08,44,4.40
2017,10,27,08,45,4.40
2017,10,27,08,46,4.40
2017,10,27,08,47,4.40
2017,10,27,08,48,4.40
2017,10,27,08,49,4.40
2017,10,27,08,50,4.40
2017,10,27,08,51,4.50
2017,10,27,08,52,4.50
2017,10,27,08,53,4.60
2017,10,27,08,54,4.60
2017,10,27,08,55,4.60
2017,10,27,08,56,4.60
2017,10,27,08,57,4.60
2017,10,27,08,58,4.70
2017,10,27,08,59,4.70
2017,10,27,09,00,4.70
2017,10,27,09,01,4.70
2017,10,27,09,02,4.80
2017,10,27,09,03,4.80
2017,10,27,09,04,4.80
2017,10,27,09,05,4.90
2017,10,27,09,06,4.90
2017,10,27,09,07,5.00
2017,10,27,09,08,5.00
2017,10,27,09,09,5.00
2017,10,27,09,10,5.10
2017,10,27,09,11,5.10
2017,10,27,09,12,5.10
2017,10,27,09,13,5.10
2017,10,27,09,14,5.10
2017,10,27,09,15,5.10
2017,10,27,09,16,5.10
2017,10,27,09,17,5.10
2017,10,27,09,18,5.20
2017,10,27,09,19,5.20
2017,10,27,09,20,5.20
2017,10,27,09,21,5.20
2017,10,27,09,22,5.30
2017,10,27,09,23,5.30
2017,10,27,09,24,5.40
2017,10,27,09,25,5.40
2017,10,27,09,26,5.40
2017,10,27,09,27,5.40
2017,10,27,09,28,5.40
2017,10,27,09,29,5.50
2017,10,27,09,30,5.50
2017,10,27,09,31,5.50
2017,10,27,09,32,5.60
2017,10,27,09,33,5.60
2017,10,27,09,34,5.60
2017,10,27,09,35,5.70
2017,10,27,09,36,5.70
2017,10,27,09,37,5.70
2017,10,27,09,38,5.70
2017,10,27,09,39,5.80
2017,10,27,09,40,5.80
2017,10,27,09,41,5.80
2017,10,27,09,42,5.80
2017,10,27,09,43,5.90
2017,10,27,09,44,5.90
2017,10,27,09,45,5.90
2017,10,27,09,46,6.00
2017,10,27,09,47,6.00
2017,10,27,09,48,6.10
2017,10,27,09,49,6.20
2017,10,27,09,50,6.20
2017,10,27,09,51,6.30
2017,10,27,09,52,6.40
2017,10,27,09,53,6.40
2017,10,27,09,54,6.40
2017,10,27,09,55,6.50
2017,10,27,09,56,6.60
2017,10,27,09,57,6.60
2017,10,27,09,58,6.60
2017,10,27,09,59,6.70
2017,10,27,10,00,6.70
2017,10,27,10,01,6.70
2017,10,27,10,02,6.70
2017,10,27,10,03,6.70
2017,10,27,10,04,6.80
2017,10,27,10,05,6.80
2017,10,27,10,06,6.80
2017,10,27,10,07,6.80
2017,10,27,10,08,6.90
2017,10,27,10,09,6.90
2017,10,27,10,10,6.90
2017,10,27,10,11,7.00
2017,10,27,10,12,7.00
2017,10,27,10,13,7.10
2017,10,27,10,14,7.10
2017,10,27,10,15,7.20
2017,10,27,10,16,7.20
2017,10,27,10,17,7.20
2017,10,27,10,18,7.20
2017,10,27,10,19,7.20
2017,10,27,10,20,7.20
2017,10,27,10,21,7.30
2017,10,27,10,22,7.30
2017,10,27,10,23,7.40
2017,10,27,10,24,7.40
2017,10,27,10,25,7.50
2017,10,27,10,26,7.50
2017,10,27,10,27,7.60
2017,10,27,10,28,7.60
2017,10,27,10,29,7.70
2017,10,27,10,30,7.80
2017,10,27,10,31,7.80
2017,10,27,10,32,7.90
2017,10,27,10,33,7.90
2017,10,27,10,34,7.90
2017,10,27,10,35,8.00
2017,10,27,10,36,8.00
2017,10,27,10,37,8.10
2017,10,27,10,38,8.20
2017,10,27,10,39,8.30
2017,10,27,10,40,8.40
2017,10,27,10,41,8.50
2017,10,27,10,42,8.60
2017,10,27,10,43,8.60
2017,10,27,10,44,8.60
2017,10,27,10,45,8.70
2017,10,27,10,46,8.80
2017,10,27,10,47,8.90
2017,10,27,10,48,8.90
2017,10,27,10,49,9.00
2017,10,27,10,50,9.00
2017,10,27,10,51,9.10
2017,10,27,10,52,9.20
2017,10,27,10,53,9.40
2017,10,27,10,54,9.50
2017,10,27,10,55,9.60
2017,10,27,10,56,9.70
2017,10,27,10,57,9.80
2017,10,27,10,58,9.90
2017,10,27,10,59,10.00
2017,10,27,11,00,10.00
2017,10,27,11,01,10.10
2017,10,27,11,02,10.20
2017,10,27,11,03,10.30
2017,10,27,11,04,10.40
2017,10,27,11,05,10.40
2017,10,27,11,06,10.50
2017,10,27,11,07,10.60
2017,10,27,11,08,10.70
2017,10,27,11,09,10.70
2017,10,27,11,10,10.90
2017,10,27,11,11,11.00
2017,10,27,11,12,11.10
2017,10,27,11,13,11.20
2017,10,27,11,14,11.30
2017,10,27,11,15,11.30
2017,10,27,11,16,11.40
2017,10,27,11,17,11.40
2017,10,27,11,18,11.40
2017,10,27,11,19,11.40
2017,10,27,11,20,11.40
2017,10,27,11,21,11.40
2017,10,27,11,22,11.50
2017,10,27,11,23,11.60
2017,10,27,11,24,11.60
2017,10,27,11,25,11.60
2017,10,27,11,26,11.70
2017,10,27,11,27,11.80
2017,10,27,11,28,11.90
2017,10,27,11,29,12.00
2017,10,27,11,30,12.10
2017,10,27,11,31,12.20
2017,10,27,11,32,12.30
2017,10,27,11,33,12.40
2017,10,27,11,34,12.50
2017,10,27,11,35,12.60
2017,10,27,11,36,12.70
2017,10,27,11,37,12.70
2017,10,27,11,38,12.80
2017,10,27,11,39,12.90
2017,10,27,11,40,12.90
2017,10,27,11,41,13.00
2017,10,27,11,42,13.20
2017,10,27,11,43,13.30
2017,10,27,11,44,13.50
2017,10,27,11,45,13.60
2017,10,27,11,46,13.70
2017,10,27,11,47,13.80
2017,10,27,11,48,14.00
2017,10,27,11,49,14.10
2017,10,27,11,50,14.20
2017,10,27,11,51,14.30
2017,10,27,11,52,14.30
2017,10,27,11,53,14.40
2017,10,27,11,54,14.50
2017,10,27,11,55,14.60
2017,10,27,11,56,14.70
2017,10,27,11,57,14.90
2017,10,27,11,58,15.00
2017,10,27,11,59,15.00
2017,10,27,12,00,15.00
2017,10,27,12,01,15.00
2017,10,27,12,02,15.00
2017,10,27,12,03,15.10
2017,10,27,12,04,15.20
2017,10,27,12,05,15.30
2017,10,27,12,06,15.40
2017,10,27,12,07,15.40
2017,10,27,12,08,15.40
2017,10,27,12,09,15.40
2017,10,27,12,10,15.30
2017,10,27,12,11,15.30
2017,10,27,12,12,15.20
2017,10,27,12,13,15.20
2017,10,27,12,14,15.30
2017,10,27,12,15,15.30
2017,10,27,12,16,15.30
2017,10,27,12,17,15.30
2017,10,27,12,18,15.40
2017,10,27,12,19,15.40
2017,10,27,12,20,15.50
2017,10,27,12,21,15.50
2017,10,27,12,22,15.60
2017,10,27,12,23,15.60
2017,10,27,12,24,15.70
2017,10,27,12,25,15.70
2017,10,27,12,26,15.70
2017,10,27,12,27,15.80
2017,10,27,12,28,15.80
2017,10,27,12,29,15.80
2017,10,27,12,30,15.90
2017,10,27,12,31,15.90
2017,10,27,12,32,15.90
2017,10,27,12,33,16.00
2017,10,27,12,34,16.00
2017,10,27,12,35,16.00
2017,10,27,12,36,16.10
2017,10,27,12,37,16.10
2017,10,27,12,38,16.10
2017,10,27,12,39,16.20
2017,10,27,12,40,16.20
2017,10,27,12,41,16.30
2017,10,27,12,42,16.40
2017,10,27,12,43,16.40
2017,10,27,12,44,16.50
2017,10,27,12,45,16.60
2017,10,27,12,46,16.70
2017,10,27,12,47,16.70
2017,10,27,12,48,16.70
2017,10,27,12,49,16.70
2017,10,27,12,50,16.80
2017,10,27,12,51,16.80
2017,10,27,12,52,16.80
2017,10,27,12,53,16.80
2017,10,27,12,54,16.80
2017,10,27,12,55,16.90
2017,10,27,12,56,16.90
2017,10,27,12,57,16.90
2017,10,27,12,58,17.00
2017,10,27,12,59,17.00
2017,10,27,13,00,17.10
2017,10,27,13,01,17.10
2017,10,27,13,02,17.10
2017,10,27,13,03,17.00
2017,10,27,13,04,17.10
2017,10,27,13,05,17.10
2017,10,27,13,06,17.10
2017,10,27,13,07,17.20
2017,10,27,13,08,17.20
2017,10,27,13,09,17.20
2017,10,27,13,10,17.20
2017,10,27,13,11,17.30
2017,10,27,13,12,17.20
2017,10,27,13,13,17.20
2017,10,27,13,14,17.20
2017,10,27,13,15,17.20
2017,10,27,13,16,17.30
2017,10,27,13,17,17.30
2017,10,27,13,18,17.30
2017,10,27,13,19,17.30
2017,10,27,13,20,17.40
2017,10,27,13,21,17.40
2017,10,27,13,22,17.40
2017,10,27,13,23,17.40
2017,10,27,13,24,17.50
2017,10,27,13,25,17.50
2017,10,27,13,26,17.60
2017,10,27,13,27,17.50
2017,10,27,13,28,17.50
2017,10,27,13,29,17.50
2017,10,27,13,30,17.50
2017,10,27,13,31,17.50
2017,10,27,13,32,17.50
2017,10,27,13,33,17.50
2017,10,27,13,34,17.50
2017,10,27,13,35,17.60
2017,10,27,13,36,17.60
2017,10,27,13,37,17.70
2017,10,27,13,38,17.80
2017,10,27,13,39,17.80
2017,10,27,13,40,17.90
2017,10,27,13,41,18.00
2017,10,27,13,42,18.10
2017,10,27,13,43,18.20
2017,10,27,13,44,18.20
2017,10,27,13,45,18.30
2017,10,27,13,46,18.40
2017,10,27,13,47,18.40
2017,10,27,13,48,18.50
2017,10,27,13,49,18.60
2017,10,27,13,50,18.70
2017,10,27,13,51,18.70
2017,10,27,13,52,18.70
2017,10,27,13,53,18.70
2017,10,27,13,54,18.70
2017,10,27,13,55,18.70
2017,10,27,13,56,18.70
2017,10,27,13,57,18.70
2017,10,27,13,58,18.70
2017,10,27,13,59,18.60
2017,10,27,14,00,18.60
2017,10,27,14,01,18.60
2017,10,27,14,02,18.60
2017,10,27,14,03,18.60
2017,10,27,14,04,18.50
2017,10,27,14,05,18.50
2017,10,27,14,06,18.50
2017,10,27,14,07,18.40
2017,10,27,14,08,18.40
2017,10,27,14,09,18.40
2017,10,27,14,10,18.40
2017,10,27,14,11,18.30
2017,10,27,14,12,18.30
2017,10,27,14,13,18.40
2017,10,27,14,14,18.30
2017,10,27,14,15,18.30
2017,10,27,14,16,18.30
2017,10,27,14,17,18.40
2017,10,27,14,18,18.40
2017,10,27,14,19,18.50
2017,10,27,14,20,18.50
2017,10,27,14,21,18.60
2017,10,27,14,22,18.60
2017,10,27,14,23,18.60
2017,10,27,14,24,18.70
2017,10,27,14,25,18.70
2017,10,27,14,26,18.70
2017,10,27,14,27,18.80
2017,10,27,14,28,18.80
2017,10,27,14,29,18.80
2017,10,27,14,30,18.80
2017,10,27,14,31,18.80
2017,10,27,14,32,18.90
2017,10,27,14,33,18.90
2017,10,27,14,34,18.90
2017,10,27,14,35,19.00
2017,10,27,14,36,19.00
2017,10,27,14,37,19.00
2017,10,27,14,38,19.10
2017,10,27,14,39,19.10
2017,10,27,14,40,19.10
2017,10,27,14,41,19.10
2017,10,27,14,42,19.00
2017,10,27,14,43,19.00
2017,10,27,14,44,19.00
2017,10,27,14,45,19.00
2017,10,27,14,46,19.00
2017,10,27,14,47,19.00
2017,10,27,14,48,19.00
2017,10,27,14,49,19.00
2017,10,27,14,50,19.00
2017,10,27,14,51,19.00
2017,10,27,14,52,19.10
2017,10,27,14,53,19.10
2017,10,27,14,54,19.10
2017,10,27,14,55,19.10
2017,10,27,14,56,19.10
2017,10,27,14,57,19.10
2017,10,27,14,58,19.10
2017,10,27,14,59,19.10
2017,10,27,15,00,19.00
2017,10,27,15,01,19.00
2017,10,27,15,02,19.00
2017,10,27,15,03,19.00
2017,10,27,15,04,19.00
2017,10,27,15,05,19.00
2017,10,27,15,06,19.00
2017,10,27,15,07,19.10
2017,10,27,15,08,19.10
2017,10,27,15,09,19.10
2017,10,27,15,10,19.20
2017,10,27,15,11,19.20
2017,10,27,15,12,19.20
2017,10,27,15,13,19.30
2017,10,27,15,14,19.30
2017,10,27,15,15,19.30
2017,10,27,15,16,19.40
2017,10,27,15,17,19.40
2017,10,27,15,18,19.40
2017,10,27,15,19,19.40
2017,10,27,15,20,19.50
2017,10,27,15,21,19.50
2017,10,27,15,22,19.50
2017,10,27,15,23,19.50
2017,10,27,15,24,19.60
2017,10,27,15,25,19.60
2017,10,27,15,26,19.60
2017,10,27,15,27,19.60
2017,10,27,15,28,19.60
2017,10,27,15,29,19.60
2017,10,27,15,30,19.70
2017,10,27,15,31,19.70
2017,10,27,15,32,19.70
2017,10,27,15,33,19.70
2017,10,27,15,34,19.70
2017,10,27,15,35,19.70
2017,10,27,15,36,19.70
2017,10,27,15,37,19.80
2017,10,27,15,38,19.80
2017,10,27,15,39,19.80
2017,10,27,15,40,19.80
2017,10,27,15,41,19.80
2017,10,27,15,42,19.70
2017,10,27,15,43,19.70
2017,10,27,15,44,19.70
2017,10,27,15,45,19.70
2017,10,27,15,46,19.60
2017,10,27,15,47,19.60
2017,10,27,15,48,19.50
2017,10,27,15,49,19.50
2017,10,27,15,50,19.40
2017,10,27,15,51,19.40
2017,10,27,15,52,19.40
2017,10,27,15,53,19.40
2017,10,27,15,54,19.40
2017,10,27,15,55,19.40
2017,10,27,15,56,19.40
2017,10,27,15,57,19.40
2017,10,27,15,58,19.30
2017,10,27,15,59,19.30
2017,10,27,16,00,19.20
2017,10,27,16,01,19.20
2017,10,27,16,02,19.20
2017,10,27,16,03,19.20
2017,10,27,16,04,19.20
2017,10,27,16,05,19.20
2017,10,27,16,06,19.20
2017,10,27,16,07,19.20
2017,10,27,16,08,19.20
2017,10,27,16,09,19.20
2017,10,27,16,10,19.20
2017,10,27,16,11,19.20
2017,10,27,16,12,19.20
2017,10,27,16,13,19.20
2017,10,27,16,14,19.10
2017,10,27,16,15,19.10
2017,10,27,16,16,19.00
2017,10,27,16,17,19.00
2017,10,27,16,18,19.00
2017,10,27,16,19,19.00
2017,10,27,16,20,19.00
2017,10,27,16,21,19.00
2017,10,27,16,22,19.00
2017,10,27,16,23,19.00
2017,10,27,16,24,19.00
2017,10,27,16,25,18.90
2017,10,27,16,26,18.90
2017,10,27,16,27,18.90
2017,10,27,16,28,18.90
2017,10,27,16,29,18.90
2017,10,27,16,30,18.80
2017,10,27,16,31,18.80
2017,10,27,16,32,18.80
2017,10,27,16,33,18.80
2017,10,27,16,34,18.70
2017,10,27,16,35,18.70
2017,10,27,16,36,18.70
2017,10,27,16,37,18.80
2017,10,27,16,38,18.70
2017,10,27,16,39,18.70
2017,10,27,16,40,18.70
2017,10,27,16,41,18.70
2017,10,27,16,42,18.70
2017,10,27,16,43,18.60
2017,10,27,16,44,18.60
2017,10,27,16,45,18.60
2017,10,27,16,46,18.60
2017,10,27,16,47,18.60
2017,10,27,16,48,18.70
2017,10,27,16,49,18.60
2017,10,27,16,50,18.60
2017,10,27,16,51,18.60
2017,10,27,16,52,18.60
2017,10,27,16,53,18.60
2017,10,27,16,54,18.60
2017,10,27,16,55,18.50
2017,10,27,16,56,18.50
2017,10,27,16,57,18.50
2017,10,27,16,58,18.50
2017,10,27,16,59,18.40
2017,10,27,17,00,18.40
2017,10,27,17,01,18.30
2017,10,27,17,02,18.30
2017,10,27,17,03,18.30
2017,10,27,17,04,18.20
2017,10,27,17,05,18.20
2017,10,27,17,06,18.20
2017,10,27,17,07,18.10
2017,10,27,17,08,18.10
2017,10,27,17,09,18.10
2017,10,27,17,10,18.00
2017,10,27,17,11,18.00
2017,10,27,17,12,17.90
2017,10,27,17,13,17.90
2017,10,27,17,14,17.80
2017,10,27,17,15,17.80
2017,10,27,17,16,17.80
2017,10,27,17,17,17.70
2017,10,27,17,18,17.60
2017,10,27,17,19,17.60
2017,10,27,17,20,17.60
2017,10,27,17,21,17.50
2017,10,27,17,22,17.40
2017,10,27,17,23,17.40
2017,10,27,17,24,17.30
2017,10,27,17,25,17.30
2017,10,27,17,26,17.20
2017,10,27,17,27,17.20
2017,10,27,17,28,17.10
2017,10,27,17,29,17.00
2017,10,27,17,30,16.90
2017,10,27,17,31,16.80
2017,10,27,17,32,16.80
2017,10,27,17,33,16.70
2017,10,27,17,34,16.70
2017,10,27,17,35,16.60
2017,10,27,17,36,16.50
2017,10,27,17,37,16.50
2017,10,27,17,38,16.40
2017,10,27,17,39,16.30
2017,10,27,17,40,16.20
2017,10,27,17,41,16.10
2017,10,27,17,42,16.10
2017,10,27,17,43,16.00
2017,10,27,17,44,15.90
2017,10,27,17,45,15.90
2017,10,27,17,46,15.80
2017,10,27,17,47,15.70
2017,10,27,17,48,15.60